User: anonymous   Login
Location: Unspecified
(0.0000°N, 0.0000°E)
Time: 14:49:16
(UTC+01:00)
Language:

ARIANE 44L R/B - Orbit

View from above orbital plane
View from above orbital plane
View from above satellite
View from above satellite

Ground track
Ground track

The orbit data is extracted from the following two-line orbital elements,

1 26901U 01039B   18017.22759766  .00001199  00000-0  34769-3 0  9994
2 26901   7.5430   8.8056 6854283 224.4708  54.2934  2.82397070149604
Epoch (UTC): 17 January 2018 05:27:44
Eccentricity: 0.6854283
inclination: 7.5430°
perigee height: 273 km
apogee height: 29256 km
right ascension of ascending node: 8.8056°
argument of perigee: 224.4708°
revolutions per day: 2.82397070
mean anomaly at epoch: 54.2934°
orbit number at epoch: 14960

The dashed part of the orbit path shows where the satellite is in the earth's shadow,  

DLR